This demonstration page uses our WeatherBlox Daily Observations layout. Learn more.

Left ArrowRight Arrow

53.62937, 11.41316

Hourly Observations for June 2, 2017

Temp ( °F °C ) Dew Point ( °F °C ) Humidity (%) Winds ( mph kmh ) Pressure ( in mb ) Visibility ( mi km ) Precip ( " mm )
6:50 am 06:50 Mostly Sunny 46 8 46 8 100 100 VRB 1 2 30.09 1019 7 11 N/A
7:20 am 07:20 Mostly Sunny 50 10 48 9 94 94 VRB 1 2 30.09 1019 7 11 N/A
7:50 am 07:50 Mostly Sunny 54 12 48 9 82 82 VRB 2 4 30.09 1019 7 11 N/A
8:20 am 08:20 Mostly Sunny 55 13 48 9 77 77 VRB 2 4 30.09 1019 7 11 N/A
8:50 am 08:50 Mostly Sunny 57 14 48 9 72 72 NNW 5 7 30.09 1019 7 11 N/A
9:20 am 09:20 Mostly Sunny 59 15 50 10 72 72 VRB 3 6 30.09 1019 7 11 N/A
9:50 am 09:50 Mostly Sunny 61 16 43 6 52 52 VRB 2 4 30.09 1019 7 11 N/A
10:20 am 10:20 Mostly Sunny 63 17 43 6 49 49 VRB 2 4 30.09 1019 7 11 N/A
10:50 am 10:50 Mostly Sunny 64 18 41 5 43 43 VRB 2 4 30.09 1019 7 11 N/A
11:20 am 11:20 Mostly Sunny 66 19 39 4 37 37 VRB 3 6 30.09 1019 7 11 N/A
11:50 am 11:50 Mostly Sunny 68 20 41 5 38 38 NNW 5 7 30.09 1019 7 11 N/A
12:20 pm 12:20 Mostly Sunny 70 21 41 5 35 35 VRB 3 6 30.09 1019 7 11 N/A
12:50 pm 12:50 Mostly Sunny 70 21 43 6 38 38 VRB 3 6 30.09 1019 7 11 N/A
1:20 pm 13:20 Mostly Sunny 70 21 41 5 35 35 VRB 5 7 30.09 1019 7 11 N/A
1:50 pm 13:50 Mostly Sunny 72 22 39 4 31 31 WSW 5 7 30.06 1018 7 11 N/A
2:20 pm 14:20 Mostly Sunny 72 22 43 6 36 36 VRB 2 4 30.06 1018 7 11 N/A
2:50 pm 14:50 Mostly Sunny 73 23 43 6 33 33 E 8 13 30.06 1018 7 11 N/A
3:20 pm 15:20 Mostly Sunny 73 23 41 5 31 31 NE 8 13 30.06 1018 7 11 N/A
3:50 pm 15:50 Mostly Sunny 72 22 41 5 33 33 ENE 9 15 30.06 1018 7 11 N/A
4:20 pm 16:20 Mostly Sunny 73 23 41 5 31 31 ENE 7 11 30.06 1018 7 11 N/A
4:50 pm 16:50 Mostly Sunny 73 23 41 5 31 31 VRB 5 7 30.06 1018 7 11 N/A
5:20 pm 17:20 Mostly Sunny 73 23 41 5 31 31 VRB 3 6 30.03 1017 7 11 N/A
5:50 pm 17:50 Mostly Sunny 73 23 41 5 31 31 E 6 9 30.03 1017 7 11 N/A

Powered by AerisWeather